Regional Weather Roundup
Issued by NWS

Home | Current Version | Previous Version | Graphics & Text | Print | Product List | Glossary On
Versions: 1 2 3 4 5 6 7 8 9 10 11 12 13 14 15 16 17 18 19 20 21 22 23 24 25 26 27 28 29 30 31 32 33 34 35 36 37 38 39 40 41 42 43 44 45 46 47 48 49 50
000
ASUS43 KLMK 230910
RWRKY
KENTUCKY REGIONAL WEATHER ROUNDUP
NATIONAL WEATHER SERVICE LOUISVILLE KY
500 AM EDT THU OCT 23 2014

NOTE "FAIR" INDICATES FEW OR NO CLOUDS BELOW 12,000 FEET
WITH NO SIGNIFICANT WEATHER AND/OR OBSTRUCTIONS TO VISIBILITY.

KYZ001>023-026-027-061>063-070>075-231000-
WESTERN AND SOUTH CENTRAL KENTUCKY

CITY           SKY/WX    TMP DP  RH WIND       PRES   REMARKS
PADUCAH        CLEAR     37  35  92 CALM      30.21F
HENDERSON        N/A    N/A N/A N/A CALM      30.24S VSB 1/2
OWENSBORO      CLEAR     38  37  96 CALM      30.25S
HOPKINSVILLE   CLEAR     41  41 100 NE3       30.23R
BOWLING GREEN  CLEAR     38  36  92 CALM      30.24R FOG
GLASGOW        CLEAR     37  37 100 CALM      30.23S FOG
$$

KYZ024-025-028>034-038-045-046-053-231000-
NORTH CENTRAL KENTUCKY

CITY           SKY/WX    TMP DP  RH WIND       PRES   REMARKS
LOUISVILLE/SDF PTCLDY    44  39  82 VRB5      30.25F
LOUISVILLE/LOU CLEAR     39  37  92 CALM      30.26S
FORT KNOX      CLEAR     40  38  91 NE2       30.23F
$$

KYZ035>037-039>044-047>052-055>060-089>105-231000-
NORTHEAST KENTUCKY

CITY           SKY/WX    TMP DP  RH WIND       PRES   REMARKS
LEXINGTON      CLOUDY    49  39  68 NE3       30.24S
COVINGTON      CLOUDY    47  40  76 CALM      30.25F
FRANKFORT      CLOUDY    48  38  68 NE5       30.24F
$$

KYZ054-064>069-076>088-106>120-231000-
SOUTHEAST KENTUCKY

CITY           SKY/WX    TMP DP  RH WIND       PRES   REMARKS
JACKSON        CLOUDY    46  39  76 CALM      30.22S
LONDON         CLOUDY    48  42  80 NE5       30.22R
SOMERSET       CLOUDY    46  39  76 NE7       30.24R
MIDDLESBORO    CLOUDY    48  40  73 NE6       30.21S
MONTICELLO     CLOUDY    43  42  96 CALM      30.24R
$$




USA.gov is the U.S. government's official web portal to all federal, state and local government web resources and services.